Time,TemperatureF,DewpointF,PressureIn,WindDirection,WindDirectionDegrees,WindSpeedMPH,WindSpeedGustMPH,Humidity,HourlyPrecipIn,Conditions,Clouds,dailyrainin,SoftwareType,DateUTC
2013-04-13 02:37:00,25.0,-99.9,-100.00,WNW,284,7.0,-999.0,0,-99.99,,,-99.99,,2013-04-13 07:37:00,
2013-04-13 02:47:00,25.0,-99.9,-100.00,WNW,290,10.0,-999.0,0,-99.99,,,-99.99,,2013-04-13 07:47:00,
2013-04-13 02:59:00,24.0,-99.9,-100.00,West,281,6.0,-999.0,0,-99.99,,,-99.99,,2013-04-13 07:59:00,
2013-04-13 03:08:00,24.0,-99.9,-100.00,West,280,6.0,-999.0,0,-99.99,,,-99.99,,2013-04-13 08:08:00,
2013-04-13 03:18:00,23.0,-99.9,-100.00,West,281,7.0,-999.0,0,-99.99,,,-99.99,,2013-04-13 08:18:00,
2013-04-13 03:27:00,23.0,-99.9,-100.00,West,280,8.0,-999.0,0,-99.99,,,-99.99,,2013-04-13 08:27:00,
2013-04-13 03:36:00,23.0,-99.9,-100.00,West,281,11.0,-999.0,0,-99.99,,,-99.99,,2013-04-13 08:36:00,
2013-04-13 03:47:00,24.0,-99.9,-100.00,WNW,285,7.0,-999.0,0,-99.99,,,-99.99,,2013-04-13 08:47:00,
2013-04-13 03:55:00,25.0,-99.9,-100.00,WNW,301,7.0,-999.0,0,-99.99,,,-99.99,,2013-04-13 08:55:00,
2013-04-13 04:07:00,25.0,-99.9,-100.00,WNW,293,11.0,-999.0,0,-99.99,,,-99.99,,2013-04-13 09:07:00,
2013-04-13 04:15:00,25.0,-99.9,-100.00,WNW,297,10.0,-999.0,0,-99.99,,,-99.99,,2013-04-13 09:15:00,
2013-04-13 04:26:00,25.0,-99.9,-100.00,NW,326,13.0,-999.0,0,-99.99,,,-99.99,,2013-04-13 09:26:00,
2013-04-13 04:38:00,25.0,-99.9,-100.00,NW,315,10.0,-999.0,0,-99.99,,,-99.99,,2013-04-13 09:38:00,
2013-04-13 04:53:00,25.0,-99.9,-100.00,WNW,296,5.0,-999.0,0,-99.99,,,-99.99,,2013-04-13 09:53:00,
2013-04-13 05:06:00,25.0,-99.9,-100.00,NW,325,9.0,-999.0,0,-99.99,,,-99.99,,2013-04-13 10:06:00,
2013-04-13 05:17:00,25.0,-99.9,-100.00,NW,318,12.0,-999.0,0,-99.99,,,-99.99,,2013-04-13 10:17:00,
2013-04-13 05:25:00,25.0,-99.9,-100.00,NW,314,16.0,-999.0,0,-99.99,,,-99.99,,2013-04-13 10:25:00,
2013-04-13 05:38:00,25.0,-99.9,-100.00,WNW,297,8.0,-999.0,0,-99.99,,,-99.99,,2013-04-13 10:38:00,
2013-04-13 05:52:00,25.0,-99.9,-100.00,WNW,286,7.0,-999.0,0,-99.99,,,-99.99,,2013-04-13 10:52:00,
2013-04-13 06:14:00,25.0,-99.9,-100.00,NNW,335,10.0,-999.0,0,-99.99,,,-99.99,,2013-04-13 11:14:00,
2013-04-13 06:25:00,25.0,-99.9,-100.00,NNW,327,9.0,-999.0,0,-99.99,,,-99.99,,2013-04-13 11:25:00,
2013-04-13 06:35:00,25.0,-99.9,-100.00,NW,307,11.0,-999.0,0,-99.99,,,-99.99,,2013-04-13 11:35:00,
2013-04-13 06:47:00,25.0,-99.9,-100.00,NW,316,7.0,-999.0,0,-99.99,,,-99.99,,2013-04-13 11:47:00,
2013-04-13 06:54:00,25.0,-99.9,-100.00,WNW,299,8.0,-999.0,0,-99.99,,,-99.99,,2013-04-13 11:54:00,
2013-04-13 07:09:00,25.0,-99.9,-100.00,NW,306,9.0,-999.0,0,-99.99,,,-99.99,,2013-04-13 12:09:00,
2013-04-13 07:17:00,25.0,-99.9,-100.00,WNW,302,7.0,-999.0,0,-99.99,,,-99.99,,2013-04-13 12:17:00,
2013-04-13 07:26:00,25.0,-99.9,-100.00,WNW,289,6.0,-999.0,0,-99.99,,,-99.99,,2013-04-13 12:26:00,
2013-04-13 07:38:00,25.0,-99.9,-100.00,WNW,295,4.0,-999.0,0,-99.99,,,-99.99,,2013-04-13 12:38:00,
2013-04-13 07:49:00,25.0,-99.9,-100.00,WNW,291,5.0,-999.0,0,-99.99,,,-99.99,,2013-04-13 12:49:00,
2013-04-13 08:09:00,26.0,-99.9,-100.00,West,276,5.0,-999.0,0,-99.99,,,-99.99,,2013-04-13 13:09:00,
2013-04-13 08:17:00,26.0,-99.9,-100.00,WNW,297,6.0,-999.0,0,-99.99,,,-99.99,,2013-04-13 13:17:00,
2013-04-13 08:32:00,26.0,-99.9,-100.00,NW,316,6.0,-999.0,0,-99.99,,,-99.99,,2013-04-13 13:32:00,
2013-04-13 08:38:00,26.0,-99.9,-100.00,North,-999,3.0,-999.0,0,-99.99,,,-99.99,,2013-04-13 13:38:00,
2013-04-13 08:49:00,27.0,-99.9,-100.00,NNW,327,6.0,-999.0,0,-99.99,,,-99.99,,2013-04-13 13:49:00,
2013-04-13 08:58:00,26.0,-99.9,-100.00,West,276,3.0,-999.0,0,-99.99,,,-99.99,,2013-04-13 13:58:00,
2013-04-13 09:06:00,26.0,-99.9,-100.00,West,276,3.0,-999.0,0,-99.99,,,-99.99,,2013-04-13 14:06:00,
2013-04-13 09:15:00,26.0,-99.9,-100.00,West,275,8.0,-999.0,0,-99.99,,,-99.99,,2013-04-13 14:15:00,
2013-04-13 09:24:00,26.0,-99.9,-100.00,WSW,248,2.0,-999.0,0,-99.99,,,-99.99,,2013-04-13 14:24:00,
2013-04-13 09:40:00,27.0,-99.9,-100.00,NW,316,4.0,-999.0,0,-99.99,,,-99.99,,2013-04-13 14:40:00,
2013-04-13 10:00:00,27.0,-99.9,-100.00,WNW,302,2.0,-999.0,0,-99.99,,,-99.99,,2013-04-13 15:00:00,
2013-04-13 10:07:00,27.0,-99.9,-100.00,NNW,327,3.0,-999.0,0,-99.99,,,-99.99,,2013-04-13 15:07:00,
2013-04-13 10:15:00,28.0,-99.9,-100.00,West,274,5.0,-999.0,0,-99.99,,,-99.99,,2013-04-13 15:15:00,
2013-04-13 10:30:00,28.0,-99.9,-100.00,WNW,301,1.0,-999.0,0,-99.99,,,-99.99,,2013-04-13 15:30:00,
2013-04-13 10:38:00,28.0,-99.9,-100.00,WSW,241,5.0,-999.0,0,-99.99,,,-99.99,,2013-04-13 15:38:00,
2013-04-13 10:45:00,28.0,-99.9,-100.00,SW,230,8.0,-999.0,0,-99.99,,,-99.99,,2013-04-13 15:45:00,
2013-04-13 10:59:00,28.0,-99.9,-100.00,WNW,290,2.0,-999.0,0,-99.99,,,-99.99,,2013-04-13 15:59:00,
2013-04-13 11:08:00,28.0,-99.9,-100.00,SW,226,5.0,-999.0,0,-99.99,,,-99.99,,2013-04-13 16:08:00,
2013-04-13 11:18:00,28.0,-99.9,-100.00,SW,223,3.0,-999.0,0,-99.99,,,-99.99,,2013-04-13 16:18:00,
2013-04-13 11:25:00,29.0,-99.9,-100.00,South,188,2.0,-999.0,0,-99.99,,,-99.99,,2013-04-13 16:25:00,
2013-04-13 11:37:00,29.0,-99.9,-100.00,South,170,2.0,-999.0,0,-99.99,,,-99.99,,2013-04-13 16:37:00,
2013-04-13 11:49:00,33.0,-99.9,-100.00,North,6,5.0,-999.0,0,-99.99,,,-99.99,,2013-04-13 16:49:00,
2013-04-13 12:09:00,36.0,-99.9,-100.00,NNE,15,4.0,-999.0,0,-99.99,,,-99.99,,2013-04-13 17:09:00,
2013-04-13 12:23:00,34.0,-99.9,-100.00,NE,36,4.0,-999.0,0,-99.99,,,-99.99,,2013-04-13 17:23:00,
2013-04-13 12:39:00,32.0,-99.9,-100.00,ENE,63,1.0,-999.0,0,-99.99,,,-99.99,,2013-04-13 17:39:00,
2013-04-13 13:05:00,31.0,-99.9,-100.00,ENE,71,4.0,-999.0,0,-99.99,,,-99.99,,2013-04-13 18:05:00,
2013-04-13 13:17:00,35.0,-99.9,-100.00,South,182,3.0,-999.0,0,-99.99,,,-99.99,,2013-04-13 18:17:00,
2013-04-13 13:25:00,32.0,-99.9,-100.00,SSE,168,6.0,-999.0,0,-99.99,,,-99.99,,2013-04-13 18:25:00,
2013-04-13 13:33:00,31.0,-99.9,-100.00,South,182,10.0,-999.0,0,-99.99,,,-99.99,,2013-04-13 18:33:00,
2013-04-13 13:42:00,32.0,-99.9,-100.00,SSE,166,8.0,-999.0,0,-99.99,,,-99.99,,2013-04-13 18:42:00,
2013-04-13 13:53:00,31.0,-99.9,-100.00,SSE,164,10.0,-999.0,0,-99.99,,,-99.99,,2013-04-13 18:53:00,
2013-04-13 14:03:00,32.0,-99.9,-100.00,South,171,8.0,-999.0,0,-99.99,,,-99.99,,2013-04-13 19:03:00,
2013-04-13 14:12:00,31.0,-99.9,-100.00,SSE,164,11.0,-999.0,0,-99.99,,,-99.99,,2013-04-13 19:12:00,
2013-04-13 14:23:00,31.0,-99.9,-100.00,SSE,166,9.0,-999.0,0,-99.99,,,-99.99,,2013-04-13 19:23:00,
2013-04-13 14:33:00,32.0,-99.9,-100.00,SSE,164,7.0,-999.0,0,-99.99,,,-99.99,,2013-04-13 19:33:00,
2013-04-13 14:42:00,33.0,-99.9,-100.00,SE,144,7.0,-999.0,0,-99.99,,,-99.99,,2013-04-13 19:42:00,
2013-04-13 14:53:00,34.0,-99.9,-100.00,ESE,114,8.0,-999.0,0,-99.99,,,-99.99,,2013-04-13 19:53:00,
2013-04-13 15:02:00,33.0,-99.9,-100.00,SSE,165,7.0,-999.0,0,-99.99,,,-99.99,,2013-04-13 20:02:00,
2013-04-13 15:13:00,34.0,-99.9,-100.00,SE,127,8.0,-999.0,0,-99.99,,,-99.99,,2013-04-13 20:13:00,
2013-04-13 15:22:00,34.0,-99.9,-100.00,ESE,109,12.0,-999.0,0,-99.99,,,-99.99,,2013-04-13 20:22:00,
2013-04-13 15:33:00,34.0,-99.9,-100.00,East,84,8.0,-999.0,0,-99.99,,,-99.99,,2013-04-13 20:33:00,
2013-04-13 15:43:00,33.0,-99.9,-100.00,ESE,107,10.0,-999.0,0,-99.99,,,-99.99,,2013-04-13 20:43:00,
2013-04-13 15:53:00,34.0,-99.9,-100.00,SE,138,9.0,-999.0,0,-99.99,,,-99.99,,2013-04-13 20:53:00,
2013-04-13 16:02:00,34.0,-99.9,-100.00,South,171,11.0,-999.0,0,-99.99,,,-99.99,,2013-04-13 21:02:00,
2013-04-13 16:12:00,34.0,-99.9,-100.00,SSE,152,11.0,-999.0,0,-99.99,,,-99.99,,2013-04-13 21:12:00,
2013-04-13 16:22:00,34.0,-99.9,-100.00,SSE,155,12.0,-999.0,0,-99.99,,,-99.99,,2013-04-13 21:22:00,
2013-04-13 16:33:00,34.0,-99.9,-100.00,SSE,152,11.0,-999.0,0,-99.99,,,-99.99,,2013-04-13 21:33:00,
2013-04-13 16:43:00,34.0,-99.9,-100.00,SSE,153,14.0,-999.0,0,-99.99,,,-99.99,,2013-04-13 21:43:00,
2013-04-13 16:53:00,34.0,-99.9,-100.00,SE,133,13.0,-999.0,0,-99.99,,,-99.99,,2013-04-13 21:53:00,
2013-04-13 17:03:00,34.0,-99.9,-100.00,SE,131,12.0,-999.0,0,-99.99,,,-99.99,,2013-04-13 22:03:00,
2013-04-13 17:13:00,33.0,-99.9,-100.00,SE,129,13.0,-999.0,0,-99.99,,,-99.99,,2013-04-13 22:13:00,
2013-04-13 17:23:00,33.0,-99.9,-100.00,SE,124,10.0,-999.0,0,-99.99,,,-99.99,,2013-04-13 22:23:00,
2013-04-13 17:33:00,33.0,-99.9,-100.00,ESE,115,11.0,-999.0,0,-99.99,,,-99.99,,2013-04-13 22:33:00,
2013-04-13 17:42:00,33.0,-99.9,-100.00,SE,133,13.0,-999.0,0,-99.99,,,-99.99,,2013-04-13 22:42:00,
2013-04-13 17:53:00,33.0,-99.9,-100.00,ESE,110,12.0,-999.0,0,-99.99,,,-99.99,,2013-04-13 22:53:00,
2013-04-13 18:02:00,33.0,-99.9,-100.00,ESE,123,11.0,-999.0,0,-99.99,,,-99.99,,2013-04-13 23:02:00,
2013-04-13 18:12:00,33.0,-99.9,-100.00,SE,140,11.0,-999.0,0,-99.99,,,-99.99,,2013-04-13 23:12:00,
2013-04-13 18:22:00,32.0,-99.9,-100.00,ESE,122,10.0,-999.0,0,-99.99,,,-99.99,,2013-04-13 23:22:00,
2013-04-13 18:33:00,32.0,-99.9,-100.00,ESE,121,9.0,-999.0,0,-99.99,,,-99.99,,2013-04-13 23:33:00,
2013-04-13 18:44:00,32.0,-99.9,-100.00,ESE,113,15.0,-999.0,0,-99.99,,,-99.99,,2013-04-13 23:44:00,
2013-04-13 18:53:00,32.0,-99.9,-100.00,ESE,106,8.0,-999.0,0,-99.99,,,-99.99,,2013-04-13 23:53:00,
2013-04-13 19:03:00,33.0,-99.9,-100.00,ESE,106,16.0,-999.0,0,-99.99,,,-99.99,,2013-04-14 00:03:00,
2013-04-13 19:12:00,33.0,-99.9,-100.00,East,92,11.0,-999.0,0,-99.99,,,-99.99,,2013-04-14 00:12:00,
2013-04-13 19:23:00,32.0,-99.9,-100.00,East,98,17.0,-999.0,0,-99.99,,,-99.99,,2013-04-14 00:23:00,
2013-04-13 19:32:00,33.0,-99.9,-100.00,East,89,11.0,-999.0,0,-99.99,,,-99.99,,2013-04-14 00:32:00,
2013-04-13 19:42:00,33.0,-99.9,-100.00,East,89,11.0,-999.0,0,-99.99,,,-99.99,,2013-04-14 00:42:00,
2013-04-13 19:52:00,32.0,-99.9,-100.00,East,95,13.0,-999.0,0,-99.99,,,-99.99,,2013-04-14 00:52:00,
2013-04-13 20:02:00,32.0,-99.9,-100.00,East,89,9.0,-999.0,0,-99.99,,,-99.99,,2013-04-14 01:02:00,
2013-04-13 20:13:00,32.0,-99.9,-100.00,East,94,15.0,-999.0,0,-99.99,,,-99.99,,2013-04-14 01:13:00,
2013-04-13 20:23:00,32.0,-99.9,-100.00,East,89,11.0,-999.0,0,-99.99,,,-99.99,,2013-04-14 01:23:00,
2013-04-13 20:33:00,32.0,-99.9,-100.00,East,95,16.0,-999.0,0,-99.99,,,-99.99,,2013-04-14 01:33:00,
2013-04-13 20:43:00,32.0,-99.9,-100.00,East,83,12.0,-999.0,0,-99.99,,,-99.99,,2013-04-14 01:43:00,
2013-04-13 20:53:00,32.0,-99.9,-100.00,East,96,13.0,-999.0,0,-99.99,,,-99.99,,2013-04-14 01:53:00,
2013-04-13 21:03:00,32.0,-99.9,-100.00,East,96,10.0,-999.0,0,-99.99,,,-99.99,,2013-04-14 02:03:00,
2013-04-13 21:13:00,31.0,-99.9,-100.00,ENE,72,12.0,-999.0,0,-99.99,,,-99.99,,2013-04-14 02:13:00,
2013-04-13 21:23:00,31.0,-99.9,-100.00,East,81,20.0,-999.0,0,-99.99,,,-99.99,,2013-04-14 02:23:00,
2013-04-13 21:33:00,31.0,-99.9,-100.00,East,87,13.0,-999.0,0,-99.99,,,-99.99,,2013-04-14 02:33:00,
2013-04-13 21:43:00,31.0,-99.9,-100.00,East,86,12.0,-999.0,0,-99.99,,,-99.99,,2013-04-14 02:43:00,
2013-04-13 21:53:00,31.0,-99.9,-100.00,East,99,13.0,-999.0,0,-99.99,,,-99.99,,2013-04-14 02:53:00,
2013-04-13 22:03:00,31.0,-99.9,-100.00,East,86,15.0,-999.0,0,-99.99,,,-99.99,,2013-04-14 03:03:00,
2013-04-13 22:13:00,31.0,-99.9,-100.00,East,93,19.0,-999.0,0,-99.99,,,-99.99,,2013-04-14 03:13:00,
2013-04-13 22:22:00,31.0,-99.9,-100.00,East,99,9.0,-999.0,0,-99.99,,,-99.99,,2013-04-14 03:22:00,
2013-04-13 22:33:00,31.0,-99.9,-100.00,East,88,17.0,-999.0,0,-99.99,,,-99.99,,2013-04-14 03:33:00,
2013-04-13 22:43:00,31.0,-99.9,-100.00,East,99,17.0,-999.0,0,-99.99,,,-99.99,,2013-04-14 03:43:00,
2013-04-13 22:53:00,31.0,-99.9,-100.00,East,84,19.0,-999.0,0,-99.99,,,-99.99,,2013-04-14 03:53:00,
2013-04-13 23:03:00,31.0,-99.9,-100.00,East,93,11.0,-999.0,0,-99.99,,,-99.99,,2013-04-14 04:03:00,
2013-04-13 23:13:00,31.0,-99.9,-100.00,East,85,14.0,-999.0,0,-99.99,,,-99.99,,2013-04-14 04:13:00,
2013-04-13 23:23:00,32.0,-99.9,-100.00,ESE,103,15.0,-999.0,0,-99.99,,,-99.99,,2013-04-14 04:23:00,
2013-04-13 23:33:00,32.0,-99.9,-100.00,ESE,108,17.0,-999.0,0,-99.99,,,-99.99,,2013-04-14 04:33:00,
2013-04-13 23:43:00,32.0,-99.9,-100.00,ESE,102,22.0,-999.0,0,-99.99,,,-99.99,,2013-04-14 04:43:00,
2013-04-13 23:53:00,33.0,-99.9,-100.00,East,92,20.0,-999.0,0,-99.99,,,-99.99,,2013-04-14 04:53:00,